User: anonymous   Login
Location: Newark
(27.9675°N, 86.8869°E)
Time: 15:25:30
(UTC+00:00)
Language:

S-56A Canister/Altair - Orbit

View from above orbital plane
View from above orbital plane
View from above satellite
View from above satellite

Ground track
Ground track

The orbit data is extracted from the following two-line orbital elements,

1    82U 61004B   19288.43520585 +.00000007 +00000-0 +44444-4 0  9992
2    82 038.8616 029.3336 1174484 336.1551 018.8718 12.26052884777612
Epoch (UTC): 15 October 2019 10:26:41
Eccentricity: 0.1174484
inclination: 38.8616°
perigee height: 633 km
apogee height: 2499 km
right ascension of ascending node: 29.3336°
argument of perigee: 336.1551°
revolutions per day: 12.26052884
mean anomaly at epoch: 18.8718°
orbit number at epoch: 77761

The dashed part of the orbit path shows where the satellite is in the earth's shadow,  

DLR